Leuchars, United Kingdom

8:59 PM BST on April 21, 2018 (GMT +0100)
Leuchars Air Base

Weather History for EGQL - September, 2013

Change the Weather History Date:

Thursday, September 19, 2013

  Actual Average Record
Temperature  
Mean Temperature 46 °F -  
Max Temperature 50 °F 55 °F 68 °F (1998)
Min Temperature 41 °F 44 °F 35 °F (1997)
Degree Days  
Heating Degree Days 20    
Moisture  
Dew Point 46 °F    
Average Humidity 93    
Maximum Humidity 100    
Minimum Humidity 82    
Precipitation  
Precipitation 0.39 in - - ()
Sea Level Pressure  
Sea Level Pressure 29.61 in    
Wind  
Wind Speed 7 mph ()    
Max Wind Speed 14 mph    
Max Gust Speed -    
Visibility 6.2 miles    
Events Rain    
Averages and records for this station are not official NWS values.
T = Trace of Precipitation, MM = Missing Value Source: Averaged Metar Reports

Daily Weather History Graph

Daily Weather History Graph

Search for Another Location

Airport or City:

Astronomy

Sep. 19, 2013 Rise Set
Actual Time 6:50 AM BST 7:18 PM BST
Civil Twilight 6:13 AM BST 7:55 PM BST
Nautical Twilight 5:27 AM BST 8:41 PM BST
Astronomical Twilight 4:38 AM BST 9:29 PM BST
Moon 6:55 PM BST (9/19) 6:51 AM BST (9/19)
Length of Visible Light 13h 42m
Length of Day
12h 27m
Full, 100% of the Moon is Illuminated
Sep 19
Full
Sep 19
Full
Sep 27
Last Quarter
Oct 5
New
Oct 12
First Quarter

Hourly Weather History & Observations

Time (BST) Temp. Windchill Dew Point Humidity Pressure Visibility Wind Dir Wind Speed Gust Speed Precip Events Conditions
12:50 AM 44 °F - 40 °F 82% 29.70 in 37 mi West 11.5 mph - -   Clear
12:50 AM 44.6 °F 38.8 °F 41.0 °F 87% 29.68 in - West 11.5 mph - N/A   Clear
1:50 AM 44.6 °F 39.2 °F 41.0 °F 87% 29.68 in - West 10.4 mph - N/A   Clear
2:50 AM 44.6 °F 39.2 °F 41.0 °F 87% 29.68 in - West 10.4 mph - N/A   Clear
3:50 AM 44.6 °F 39.2 °F 41.0 °F 87% 29.65 in - West 10.4 mph - N/A   Clear
4:50 AM 46.4 °F 40.4 °F 42.8 °F 87% 29.65 in - West 13.8 mph - N/A   Clear
5:50 AM 46.4 °F 41.9 °F 42.8 °F 87% 29.65 in - WSW 9.2 mph - N/A   Clear
6:50 AM 45 °F - 42 °F 87% 29.64 in 16 mi West 5.8 mph - -   Scattered Clouds
6:50 AM 44.6 °F 41.4 °F 42.8 °F 93% 29.62 in 6.2 mi West 5.8 mph - N/A   Mostly Cloudy
7:50 AM 46.4 °F 45.2 °F 44.6 °F 93% 29.59 in 6.2 mi SSW 3.5 mph - N/A Rain Rain
8:50 AM 46.4 °F 45.2 °F 44.6 °F 93% 29.59 in 6.2 mi WSW 3.5 mph - N/A Rain Rain
9:50 AM 47 °F - 46 °F 94% 29.60 in 4 mi ESE 1.2 mph - - Rain Rain
9:50 AM 46.4 °F - 46.4 °F 100% 29.59 in 3.7 mi ESE 1.2 mph - N/A Rain Rain
10:09 AM 48.2 °F - 46.4 °F 93% 29.59 in 5.0 mi South 3.5 mph - N/A Rain Rain
10:34 AM 48.2 °F - 46.4 °F 93% 29.59 in 6.2 mi SW 4.6 mph - N/A Rain Light Rain
10:50 AM 48.2 °F - 46.4 °F 93% 29.59 in 6.2 mi SSW 2.3 mph - N/A Rain Light Rain
11:50 AM 48.2 °F - 44.6 °F 87% 29.56 in 6.2 mi SE 5.8 mph - N/A Rain Light Rain
12:04 PM 48.2 °F - 46.4 °F 93% 29.56 in 6.2 mi ESE 5.8 mph - N/A Rain Rain
12:25 PM 48.2 °F - 46.4 °F 93% 29.53 in 6.2 mi SE 9.2 mph - N/A Rain Light Rain
12:50 PM 49 °F - 46 °F 86% 29.55 in 7 mi SE 10.4 mph - - Rain Light Rain
12:50 PM 48.2 °F - 46.4 °F 93% 29.53 in 6.2 mi SE 10.4 mph - N/A Rain Light Rain
1:50 PM 50.0 °F - 46.4 °F 87% 29.53 in 6.2 mi SE 11.5 mph - N/A Rain Light Rain
2:31 PM 50.0 °F - 48.2 °F 94% 29.53 in 3.1 mi ESE 13.8 mph - N/A   Light Drizzle
2:50 PM 50.0 °F - 48.2 °F 94% 29.53 in 3.7 mi ESE 12.7 mph - N/A   Light Drizzle
3:50 PM 49 °F - 48 °F 94% 29.56 in 4 mi East 9.2 mph - - Rain Light Drizzle
3:50 PM 50.0 °F - 48.2 °F 94% 29.53 in 3.7 mi East 9.2 mph - N/A   Light Drizzle
4:50 PM 50.0 °F - 48.2 °F 94% 29.56 in 4.3 mi ENE 6.9 mph - N/A   Light Drizzle
5:21 PM 50.0 °F - 50.0 °F 100% 29.56 in 6.2 mi ENE 9.2 mph - N/A   Mostly Cloudy
5:50 PM 50.0 °F - 50.0 °F 100% 29.56 in 6.2 mi ENE 6.9 mph - N/A   Mostly Cloudy
6:50 PM 49 °F - 48 °F 97% 29.61 in 9 mi NNE 6.9 mph - -   Partly Cloudy
6:50 PM 50.0 °F - 48.2 °F 94% 29.59 in 6.2 mi NNE 6.9 mph - N/A   Mostly Cloudy
7:05 PM 50.0 °F - 48.2 °F 94% 29.59 in 6.2 mi NNE 6.9 mph - N/A   Mostly Cloudy
7:50 PM 48.2 °F - 48.2 °F 100% 29.62 in 6.2 mi North 5.8 mph - N/A   Mostly Cloudy
8:50 PM 46.4 °F 45.2 °F 46.4 °F 100% 29.65 in 6.2 mi NNE 3.5 mph - N/A   Scattered Clouds
9:50 PM 47 °F - 47 °F 98% 29.70 in 12 mi West 3.5 mph - -   Mostly Cloudy
9:50 PM 46.4 °F 45.2 °F 46.4 °F 100% 29.68 in 6.2 mi West 3.5 mph - N/A   Mostly Cloudy
10:50 PM 48.2 °F - 46.4 °F 93% 29.71 in 6.2 mi West 5.8 mph - N/A   Mostly Cloudy
11:50 PM 48.2 °F - 46.4 °F 93% 29.74 in 6.2 mi West 3.5 mph - N/A   Mostly Cloudy